Volver al catálogo

OPS 7898

P/L 3

ActivoNavegaciónLEO
NORAD 5681·PAYLOAD·🇺🇸 United States

Lanzado Dec 14, 1971 desde Vandenberg Space Force Base

Loading…

Próximos Pases (próximas 24 horas)

TLE

ActualizadoSource: Space-Track

Época: Sep 14, 2026, 04:59 UTC

1 05681U 71110D   26257.20821509 -.00000009  00000-0  42981-4 0  9997
2 05681  69.9891 182.1714 0006106  46.2381 313.9218 13.74649204369055

Sigue OPS 7898 en tiempo real con AllMySat

Download on the App Store